Find Jilin-1 GaoFen 07B 02 xing

NORAD ID: 68694 Int'l Des: NNA 2026-080 Owner: CGSTL Country: CN Constellation: jilin-1 operational
LEOCIRCULARRETROGRADESSO

Current View

Loading 3D Globe...

About Jilin-1 GaoFen 07B 02 xing

Description loading...

Upcoming Passes

Passes for default location (London). Set your location on the main map for personalized predictions.

Altitude History

Loading altitude history...

Two-Line Element Set

1 68694U 26080D 26151.21750368 .00008378 00000-0 53638-3 0 9990
2 68694 97.6670 226.8443 0019818 112.8335 247.4988 15.08657527 7082
Epoch: May 31, 2026 • Age: 4 hours

Current Status

Altitude 540.0 km
Velocity 7.59 km/s
Sub-Earth Point -4.88°S, 19.2°E
Launch Date Apr 14, 2026
Age 0.1 years
Type other

Technical Details

Classification Payload
Mass 50.00 kg
Dry Mass 50.00 kg
Total Mass 50.00 kg
Length 1.50 m
Diameter 1.00 m
Span 1.50 m
Shape Box
Manufacturer CGSTL
Bus Type JL-1GF07
Phase Status In Orbit
Owner/State CGSTL/CN

Most Searched